Time,TemperatureF,DewpointF,PressureIn,WindDirection,WindDirectionDegrees,WindSpeedMPH,WindSpeedGustMPH,Humidity,HourlyPrecipIn,Conditions,Clouds,dailyrainin,SoftwareType,DateUTC
2013-01-10 00:11:00,28.8,13.4,29.99,NNE,22,2.7,-999.0,52,-99.99,,,0.00,Acu-Link.com,2013-01-10 07:11:00,
2013-01-10 00:26:00,28.2,13.3,29.97,NNE,22,2.2,-999.0,53,-99.99,,,0.00,Acu-Link.com,2013-01-10 07:26:00,
2013-01-10 00:42:00,27.9,13.4,29.97,WNW,292,4.3,-999.0,54,-99.99,,,0.00,Acu-Link.com,2013-01-10 07:42:00,
2013-01-10 00:57:00,29.7,15.1,29.95,NNW,337,3.8,-999.0,54,-99.99,,,0.00,Acu-Link.com,2013-01-10 07:57:00,
2013-01-10 01:12:00,30.9,15.4,29.95,NE,45,4.3,-999.0,52,-99.99,,,0.00,Acu-Link.com,2013-01-10 08:12:00,
2013-01-10 01:27:00,29.3,14.3,29.94,NE,45,3.8,-999.0,53,-99.99,,,0.00,Acu-Link.com,2013-01-10 08:27:00,
2013-01-10 01:42:00,27.9,13.4,29.95,NE,45,1.6,-999.0,54,-99.99,,,0.00,Acu-Link.com,2013-01-10 08:42:00,
2013-01-10 01:58:00,26.6,13.4,29.94,NNW,337,1.6,-999.0,57,-99.99,,,0.00,Acu-Link.com,2013-01-10 08:58:00,
2013-01-10 02:13:00,26.8,14.0,29.94,NNE,22,3.1,-999.0,58,-99.99,,,0.00,Acu-Link.com,2013-01-10 09:13:00,
2013-01-10 02:28:00,28.2,13.7,29.93,WNW,292,1.6,-999.0,54,-99.99,,,0.00,Acu-Link.com,2013-01-10 09:28:00,
2013-01-10 02:43:00,27.9,13.8,29.92,NW,315,2.2,-999.0,55,-99.99,,,0.00,Acu-Link.com,2013-01-10 09:43:00,
2013-01-10 02:58:00,27.9,13.8,29.92,North,0,4.7,-999.0,55,-99.99,,,0.00,Acu-Link.com,2013-01-10 09:58:00,
2013-01-10 03:13:00,28.2,13.7,29.92,NNW,337,3.8,-999.0,54,-99.99,,,0.00,Acu-Link.com,2013-01-10 10:13:00,
2013-01-10 03:29:00,28.6,14.1,29.92,NNE,22,4.3,-999.0,54,-99.99,,,0.00,Acu-Link.com,2013-01-10 10:29:00,
2013-01-10 03:44:00,28.2,13.7,29.91,NE,45,4.7,-999.0,54,-99.99,,,0.00,Acu-Link.com,2013-01-10 10:44:00,
2013-01-10 03:59:00,26.1,13.3,29.90,East,90,3.8,-999.0,58,-99.99,,,0.00,Acu-Link.com,2013-01-10 10:59:00,
2013-01-10 04:14:00,25.3,12.7,29.90,NE,45,4.7,-999.0,58,-99.99,,,0.00,Acu-Link.com,2013-01-10 11:14:00,
2013-01-10 04:29:00,24.6,12.7,29.89,NW,315,3.8,-999.0,60,-99.99,,,0.00,Acu-Link.com,2013-01-10 11:29:00,
2013-01-10 04:45:00,24.3,12.8,29.89,NNW,337,2.2,-999.0,61,-99.99,,,0.00,Acu-Link.com,2013-01-10 11:45:00,
2013-01-10 05:00:00,24.8,12.9,29.88,North,0,3.8,-999.0,60,-99.99,,,0.00,Acu-Link.com,2013-01-10 12:00:00,
2013-01-10 05:15:00,24.8,13.3,29.87,NNE,22,4.7,-999.0,61,-99.99,,,0.00,Acu-Link.com,2013-01-10 12:15:00,
2013-01-10 05:30:00,25.5,13.2,29.88,NNW,337,6.7,-999.0,59,-99.99,,,0.00,Acu-Link.com,2013-01-10 12:30:00,
2013-01-10 05:45:00,25.7,13.0,29.87,North,0,4.7,-999.0,58,-99.99,,,0.00,Acu-Link.com,2013-01-10 12:45:00,
2013-01-10 06:01:00,25.3,12.7,29.87,NE,45,3.8,-999.0,58,-99.99,,,0.00,Acu-Link.com,2013-01-10 13:01:00,
2013-01-10 06:16:00,24.4,12.6,29.87,North,0,0.0,-999.0,60,-99.99,,,0.00,Acu-Link.com,2013-01-10 13:16:00,
2013-01-10 06:31:00,23.4,12.3,29.87,NE,45,2.2,-999.0,62,-99.99,,,0.00,Acu-Link.com,2013-01-10 13:31:00,
2013-01-10 06:46:00,23.4,12.7,29.86,NE,45,2.7,-999.0,63,-99.99,,,0.00,Acu-Link.com,2013-01-10 13:46:00,
2013-01-10 07:02:00,23.4,12.7,29.86,NE,45,2.2,-999.0,63,-99.99,,,0.00,Acu-Link.com,2013-01-10 14:02:00,
2013-01-10 07:17:00,23.2,13.2,29.86,North,0,4.3,-999.0,65,-99.99,,,0.00,Acu-Link.com,2013-01-10 14:17:00,
2013-01-10 07:32:00,24.8,13.3,29.86,NNW,337,6.3,-999.0,61,-99.99,,,0.00,Acu-Link.com,2013-01-10 14:32:00,
2013-01-10 07:47:00,25.9,12.8,29.87,NE,45,4.7,-999.0,57,-99.99,,,0.00,Acu-Link.com,2013-01-10 14:47:00,
2013-01-10 08:02:00,26.6,13.0,29.88,NW,315,3.1,-999.0,56,-99.99,,,0.00,Acu-Link.com,2013-01-10 15:02:00,
2013-01-10 08:18:00,27.9,13.8,29.88,NNW,337,3.1,-999.0,55,-99.99,,,0.00,Acu-Link.com,2013-01-10 15:18:00,
2013-01-10 08:33:00,26.8,13.2,29.87,ENE,67,4.3,-999.0,56,-99.99,,,0.00,Acu-Link.com,2013-01-10 15:33:00,
2013-01-10 08:48:00,27.5,13.5,29.88,NE,45,2.2,-999.0,55,-99.99,,,0.00,Acu-Link.com,2013-01-10 15:48:00,
2013-01-10 09:03:00,29.5,14.1,29.88,NNE,22,3.8,-999.0,52,-99.99,,,0.00,Acu-Link.com,2013-01-10 16:03:00,
2013-01-10 09:18:00,31.1,13.7,29.88,NE,45,5.8,-999.0,48,-99.99,,,0.00,Acu-Link.com,2013-01-10 16:18:00,
2013-01-10 09:34:00,31.3,13.9,29.87,NE,45,5.8,-999.0,48,-99.99,,,0.00,Acu-Link.com,2013-01-10 16:34:00,
2013-01-10 09:49:00,32.5,13.6,29.88,NNE,22,5.8,-999.0,45,-99.99,,,0.00,Acu-Link.com,2013-01-10 16:49:00,
2013-01-10 10:04:00,32.4,13.4,29.88,ENE,67,5.8,-999.0,45,-99.99,,,0.00,Acu-Link.com,2013-01-10 17:04:00,
2013-01-10 10:19:00,33.6,13.5,29.89,NE,45,2.2,-999.0,43,-99.99,,,0.00,Acu-Link.com,2013-01-10 17:19:00,
2013-01-10 10:35:00,34.3,13.7,29.88,ESE,112,3.8,-999.0,42,-99.99,,,0.00,Acu-Link.com,2013-01-10 17:35:00,
2013-01-10 10:50:00,36.0,14.0,29.86,NE,45,3.8,-999.0,40,-99.99,,,0.00,Acu-Link.com,2013-01-10 17:50:00,
2013-01-10 11:05:00,37.6,14.3,29.86,South,180,3.8,-999.0,38,-99.99,,,0.00,Acu-Link.com,2013-01-10 18:05:00,
2013-01-10 11:20:00,39.0,15.0,29.85,South,180,4.3,-999.0,37,-99.99,,,0.00,Acu-Link.com,2013-01-10 18:20:00,
2013-01-10 11:35:00,39.4,15.3,29.84,ESE,112,2.7,-999.0,37,-99.99,,,0.00,Acu-Link.com,2013-01-10 18:35:00,
2013-01-10 11:51:00,39.7,15.0,29.82,ESE,112,2.7,-999.0,36,-99.99,,,0.00,Acu-Link.com,2013-01-10 18:51:00,
2013-01-10 12:06:00,41.5,15.3,29.80,SSW,202,1.6,-999.0,34,-99.99,,,0.00,Acu-Link.com,2013-01-10 19:06:00,
2013-01-10 12:21:00,41.2,15.6,29.80,SW,225,1.1,-999.0,35,-99.99,,,0.00,Acu-Link.com,2013-01-10 19:21:00,
2013-01-10 12:36:00,41.2,15.6,29.79,WNW,292,0.0,-999.0,35,-99.99,,,0.00,Acu-Link.com,2013-01-10 19:36:00,
2013-01-10 12:51:00,42.6,15.6,29.76,SSE,157,1.6,-999.0,33,-99.99,,,0.00,Acu-Link.com,2013-01-10 19:51:00,
2013-01-10 13:07:00,42.6,15.6,29.75,South,180,2.7,-999.0,33,-99.99,,,0.00,Acu-Link.com,2013-01-10 20:07:00,
2013-01-10 13:22:00,43.0,16.6,29.74,SSE,157,2.7,-999.0,34,-99.99,,,0.00,Acu-Link.com,2013-01-10 20:22:00,
2013-01-10 13:37:00,44.2,16.3,29.73,SSW,202,4.3,-999.0,32,-99.99,,,0.00,Acu-Link.com,2013-01-10 20:37:00,
2013-01-10 14:07:00,45.1,15.6,29.72,SSW,202,6.7,-999.0,30,-99.99,,,0.00,Acu-Link.com,2013-01-10 21:07:00,
2013-01-10 14:23:00,45.1,16.3,29.72,South,180,4.3,-999.0,31,-99.99,,,0.00,Acu-Link.com,2013-01-10 21:23:00,
2013-01-10 14:38:00,45.5,15.9,29.71,SW,225,3.8,-999.0,30,-99.99,,,0.00,Acu-Link.com,2013-01-10 21:38:00,
2013-01-10 14:53:00,45.0,15.4,29.71,SSE,157,5.1,-999.0,30,-99.99,,,0.00,Acu-Link.com,2013-01-10 21:53:00,
2013-01-10 15:08:00,44.6,15.9,29.70,West,270,3.8,-999.0,31,-99.99,,,0.00,Acu-Link.com,2013-01-10 22:08:00,
2013-01-10 15:24:00,43.9,16.0,29.70,South,180,3.1,-999.0,32,-99.99,,,0.00,Acu-Link.com,2013-01-10 22:24:00,
2013-01-10 15:39:00,43.3,15.5,29.70,South,180,4.3,-999.0,32,-99.99,,,0.00,Acu-Link.com,2013-01-10 22:39:00,
2013-01-10 15:54:00,43.2,16.0,29.69,SSE,157,4.7,-999.0,33,-99.99,,,0.00,Acu-Link.com,2013-01-10 22:54:00,
2013-01-10 16:09:00,43.0,15.9,29.70,South,180,2.2,-999.0,33,-99.99,,,0.00,Acu-Link.com,2013-01-10 23:09:00,
2013-01-10 16:24:00,42.8,15.7,29.70,SSE,157,1.1,-999.0,33,-99.99,,,0.00,Acu-Link.com,2013-01-10 23:24:00,
2013-01-10 16:40:00,42.6,15.6,29.69,SSE,157,4.3,-999.0,33,-99.99,,,0.00,Acu-Link.com,2013-01-10 23:40:00,
2013-01-10 16:55:00,42.3,15.9,29.68,ESE,112,3.8,-999.0,34,-99.99,,,0.00,Acu-Link.com,2013-01-10 23:55:00,
2013-01-10 17:10:00,41.7,16.8,29.67,ESE,112,1.1,-999.0,36,-99.99,,,0.00,Acu-Link.com,2013-01-11 00:10:00,
2013-01-10 17:25:00,41.2,16.3,29.66,SW,225,0.0,-999.0,36,-99.99,,,0.00,Acu-Link.com,2013-01-11 00:25:00,
2013-01-10 17:40:00,40.5,15.6,29.67,WNW,292,0.0,-999.0,36,-99.99,,,0.00,Acu-Link.com,2013-01-11 00:40:00,
2013-01-10 17:56:00,39.9,15.8,29.67,West,270,0.0,-999.0,37,-99.99,,,0.00,Acu-Link.com,2013-01-11 00:56:00,
2013-01-10 18:11:00,39.9,15.8,29.66,WNW,292,0.0,-999.0,37,-99.99,,,0.00,Acu-Link.com,2013-01-11 01:11:00,
2013-01-10 18:26:00,39.6,15.5,29.65,South,180,0.0,-999.0,37,-99.99,,,0.00,Acu-Link.com,2013-01-11 01:26:00,
2013-01-10 18:41:00,38.7,15.9,29.66,West,270,1.6,-999.0,39,-99.99,,,0.00,Acu-Link.com,2013-01-11 01:41:00,
2013-01-10 18:56:00,38.7,15.9,29.66,NW,315,1.6,-999.0,39,-99.99,,,0.00,Acu-Link.com,2013-01-11 01:56:00,
2013-01-10 19:12:00,38.3,15.5,29.65,NW,315,0.0,-999.0,39,-99.99,,,0.00,Acu-Link.com,2013-01-11 02:12:00,
2013-01-10 19:27:00,37.9,15.8,29.65,North,0,2.2,-999.0,40,-99.99,,,0.00,Acu-Link.com,2013-01-11 02:27:00,
2013-01-10 19:42:00,37.9,15.2,29.63,NW,315,3.1,-999.0,39,-99.99,,,0.00,Acu-Link.com,2013-01-11 02:42:00,
2013-01-10 19:57:00,37.8,15.1,29.63,WNW,292,2.2,-999.0,39,-99.99,,,0.00,Acu-Link.com,2013-01-11 02:57:00,
2013-01-10 20:13:00,37.4,14.7,29.63,WNW,292,1.1,-999.0,39,-99.99,,,0.00,Acu-Link.com,2013-01-11 03:13:00,
2013-01-10 20:28:00,37.2,14.6,29.63,WNW,292,0.0,-999.0,39,-99.99,,,0.00,Acu-Link.com,2013-01-11 03:28:00,
2013-01-10 20:43:00,36.7,14.7,29.64,WNW,292,0.0,-999.0,40,-99.99,,,0.00,Acu-Link.com,2013-01-11 03:43:00,
2013-01-10 20:58:00,36.1,15.3,29.63,North,0,0.0,-999.0,42,-99.99,,,0.00,Acu-Link.com,2013-01-11 03:58:00,
2013-01-10 21:13:00,35.8,15.0,29.62,NE,45,0.0,-999.0,42,-99.99,,,0.00,Acu-Link.com,2013-01-11 04:13:00,
2013-01-10 21:29:00,35.4,14.6,29.61,ESE,112,0.0,-999.0,42,-99.99,,,0.00,Acu-Link.com,2013-01-11 04:29:00,
2013-01-10 21:44:00,35.2,15.0,29.61,West,270,1.1,-999.0,43,-99.99,,,0.00,Acu-Link.com,2013-01-11 04:44:00,
2013-01-10 21:59:00,35.4,15.2,29.61,WNW,292,0.0,-999.0,43,-99.99,,,0.00,Acu-Link.com,2013-01-11 04:59:00,
2013-01-10 22:14:00,35.8,15.5,29.59,SSW,202,0.0,-999.0,43,-99.99,,,0.00,Acu-Link.com,2013-01-11 05:14:00,
2013-01-10 22:29:00,35.4,15.2,29.59,WSW,247,0.0,-999.0,43,-99.99,,,0.00,Acu-Link.com,2013-01-11 05:29:00,
2013-01-10 22:45:00,35.1,15.4,29.59,SW,225,0.0,-999.0,44,-99.99,,,0.00,Acu-Link.com,2013-01-11 05:45:00,
2013-01-10 23:00:00,35.4,15.7,29.58,SW,225,2.2,-999.0,44,-99.99,,,0.00,Acu-Link.com,2013-01-11 06:00:00,
2013-01-10 23:15:00,34.9,16.2,29.56,SW,225,1.1,-999.0,46,-99.99,,,0.00,Acu-Link.com,2013-01-11 06:15:00,
2013-01-10 23:30:00,34.3,15.7,29.56,ESE,112,0.0,-999.0,46,-99.99,,,0.00,Acu-Link.com,2013-01-11 06:30:00,
2013-01-10 23:45:00,34.7,17.0,29.56,South,180,2.7,-999.0,48,-99.99,,,0.00,Acu-Link.com,2013-01-11 06:45:00,